Location: ???????
(30.0771°N, 31.2859°E)
Time: 01:26:25
(UTC+00:00)

Daily predictions for brighter satellites

Satellite Brightness Start Highest point End
(mag) Time Altitude Azimuth Time Altitude Azimuth Time Altitude Azimuth
Cosmos 2344 4.3 01:36:41 38° NNW 01:36:41 38° NNW 01:41:45 10° NNE
ATLAS 5 CENTAUR R/B 4.2 01:37:44 15° NE 01:37:44 15° NE 01:38:30 10° NE
Centaur D AC-29 3.2 01:40:02 24° ESE 01:40:02 24° ESE 01:41:23 10° ESE
Cosmos 1709 Rocket 4.4 01:51:19 10° N 01:57:39 64° E 02:03:55 10° SSE
FENGYUN 3A 4.0 01:52:16 10° NNE 01:57:40 64° E 01:58:31 56° SE
CENTAUR R/B 4.2 02:02:50 10° NNW 02:10:55 47° NE 02:19:23 10° SE
CZ-2C R/B 3.4 02:16:00 19° SSE 02:16:36 20° SE 02:19:49 10° E
Geosat 4.1 02:13:26 10° NNE 02:17:52 59° NNW 02:17:52 59° NNW
USA 234 3.4 02:12:09 10° SE 02:18:39 74° NE 02:24:09 15° NW
Cosmos 1933 3.9 02:22:13 51° NNE 02:22:13 51° NNE 02:25:18 10° N
OAO 3 Rocket 3.8 02:22:21 45° NNW 02:22:46 46° N 02:27:26 10° ENE
Cosmos 2360 Rocket 2.1 02:22:23 60° WNW 02:22:56 64° WSW 02:28:30 10° S
Meteor 2-17 Rocket 4.3 02:17:30 10° N 02:23:35 88° E 02:29:39 10° S
CZ-4C R/B 2.6 02:25:01 39° NNW 02:25:01 39° NNW 02:29:12 10° NNE
Cosmos 407 Rocket 3.3 02:26:00 45° SSW 02:27:37 83° WNW 02:32:47 10° NNE
Lacrosse 4 Rocket 1.5 02:29:06 63° S 02:29:06 63° S 02:32:48 10° SSE
ALOS 2.3 02:24:22 10° N 02:28:32 57° NW 02:28:32 57° NW
NOSS 3-4 (A) 3.4 02:29:01 49° W 02:29:38 51° WNW 02:35:31 10° NNE
NOSS 3-4 (C) 3.4 02:29:05 49° W 02:29:45 52° WNW 02:35:38 10° NNE
Cosmos 2333 4.4 02:24:40 10° NNW 02:30:28 76° ENE 02:36:14 10° SSE
Cosmos 1190 Rocket 3.9 02:35:01 17° SSW 02:39:10 87° WNW 02:44:30 10° NNE
Meteor 1-31 Rocket 3.1 02:35:57 10° NNE 02:39:45 65° E 02:43:31 10° S
Cosmos 2227 Rocket 3.7 02:35:23 10° SSE 02:40:30 36° ESE 02:45:38 10° NE
Cosmos 1328 Rocket 3.7 02:38:41 10° S 02:42:57 71° E 02:47:14 10° N
ATLAS 2AS CENTAUR R/B 3.0 02:38:37 20° SW 02:44:22 71° WNW 02:52:16 10° NNE
Lacrosse 5 2.6 02:40:20 10° NNW 02:45:16 52° NE 02:50:11 10° SE
CZ-3 R/B 3.1 02:33:55 23° WSW 02:49:33 70° S 02:56:24 10° E
Cosmos 2333 Rocket 2.2 02:45:52 10° NNW 02:51:40 88° WSW 02:57:25 10° SSE
GPS 2-04 Rocket1 3.7 02:52:24 27° NNW 02:53:33 33° N 02:57:02 10° ENE
Cosmos 1437 Rocket 2.7 02:50:31 12° SSW 02:54:18 64° W 02:58:20 10° N
Landsat 5 3.5 02:51:49 10° S 02:55:26 42° W 02:59:06 10° NNW
Cosmos 2297 Rocket 2.5 02:50:01 10° S 02:55:35 69° ESE 03:01:12 10° NNE
SJ-12 3.8 02:53:24 10° N 02:57:28 87° W 03:01:30 10° SSW
COSMO-SKYMED 1 3.7 02:55:47 10° SSE 02:59:55 46° ENE 03:04:04 10° N
Cosmos 1805 Rocket 4.2 02:56:59 10° NNW 03:00:55 31° W 03:04:50 10° SSW
Delta 2 Rocket 4.3 02:58:15 23° NW 03:00:59 52° NNE 03:06:05 10° E
Cosmos 1484 Rocket 4.3 02:58:24 10° NNW 03:00:06 20° NW 03:00:06 20° NW
CZ-4B R/B 3.2 03:00:28 10° SE 03:03:15 31° ENE 03:06:01 10° N
Cosmos 1782 2.8 03:00:13 10° SSW 03:04:03 55° W 03:07:55 10° N
CZ-4B R/B 3.7 03:00:18 10° NNE 03:04:47 62° E 03:09:09 10° S
Cosmos 1140 Rocket 3.9 03:01:51 18° SW 03:05:15 40° WNW 03:10:07 10° N
Meteor 1-26 Rocket 4.3 03:00:08 10° SSW 03:05:40 58° W 03:11:25 10° N
Cosmos 2219 Rocket 2.1 03:00:54 10° NNW 03:06:34 77° WSW 03:12:12 10° SSE
Envisat 4.2 03:01:49 10° NNE 03:06:40 44° E 03:11:28 10° S
Milstar 3 Cent rocket 1.9 03:04:55 24° W 03:07:49 71° S 03:12:34 10° ESE
deb Chang Zheng 4 4.1 03:05:14 10° NNE 03:09:29 60° ESE 03:13:45 10° S
Sakura Rocket 3.1 03:11:35 23° W 03:13:58 52° SSW 03:17:34 10° ESE
MOS 1 Rocket 3.1 03:12:38 10° SSE 03:16:57 89° ENE 03:21:27 10° N
SeaSat 1 3.3 03:12:13 10° SE 03:16:58 52° ENE 03:21:45 10° NNW
Sich 1 3.9 03:14:01 10° NNW 03:17:41 27° W 03:21:20 10° SSW
Cosmos 2074 Rocket 3.9 03:12:11 10° N 03:18:22 74° W 03:24:32 10° S
ATLAS 5 CENTAUR R/B 3.4 03:19:17 11° NW 03:19:35 11° NW 03:20:58 10° NNW
USA 238 DEB 4.0 03:14:20 10° NW 03:21:33 55° WSW 03:28:56 10° S
USA 238 4.0 03:14:26 10° NW 03:21:39 56° WSW 03:29:04 10° S
Cosmos 1500 4.1 03:18:26 10° N 03:22:09 53° E 03:25:53 10° SSE
COSMOS 2428 2.7 03:17:15 10° NNW 03:22:55 66° WSW 03:28:33 10° S
Cosmos 1666 Rocket 4.0 03:20:40 10° NNW 03:24:45 39° W 03:28:51 10° SSW
Skynet4D Del rocket 3.8 03:20:45 16° W 03:25:06 60° S 03:30:21 10° ESE
Cosmos 2154 Rocket 4.2 03:19:31 10° N 03:25:48 79° E 03:32:04 10° S
ADEOS 4.4 03:28:05 10° N 03:32:34 30° WNW 03:37:03 10° SW
YAOGAN 6 2.4 03:31:49 10° N 03:35:17 84° WNW 03:38:45 10° SSW
Cosmos 2219 3.3 03:29:55 10° SW 03:35:27 54° WNW 03:40:58 10° N
H-2A R/B 3.0 03:32:57 10° SSW 03:36:29 25° W 03:39:58 10° NW
Cosmos 1151 Rocket 4.4 03:35:41 10° WSW 03:38:36 18° WNW 03:41:32 10° NW
Cosmos 1602 4.5 03:36:53 10° NNW 03:40:21 31° W 03:43:47 10° SSW
NOSS 0 Rocket 3.9 03:38:40 10° NNW 03:44:52 83° WSW 03:51:04 10° SSE
SL-8 R/B 3.7 03:40:07 10° SW 03:44:54 87° NW 03:49:42 10° NE
Cosmos 2184 Rocket 4.3 03:39:11 10° NNW 03:45:10 44° W 03:51:09 10° SSW
Meteor 2-12 Rocket 4.5 03:40:06 10° N 03:46:16 80° W 03:52:25 10° S
SKYMED 2 4.0 03:43:50 10° S 03:47:55 41° W 03:52:01 10° NNW
Cosmos 2082 3.9 03:46:12 10° SSW 03:51:52 84° ESE 03:57:32 10° NNE
